Tracking 28790 objects as of 19-Apr-2024
HD Live streaming from Space Station
objects crossing your sky now

OPTUS B1 R/B(STAR 63F)

Track OPTUS B1 R/B(STAR 63F) now!


NORAD ID: 22089
Int'l Code: 1992-054C
Perigee: 457.0 km
Apogee: 36,189.7 km
Inclination: 23.0 °
Period: 643.7 minutes
Semi major axis: 24694 km
RCS: 6.8742 m2 (large)
Launch date: August 13, 1992
Source: Australia (AUS)
Launch site: Xichang Space Center, China (XSC)

Note: This is a ROCKET BODY
Your satellite tracking list
Your tracking list is empty




NASA's NSSDC Master Catalog

Two Line Element Set (TLE):
1 22089U 92054C   24109.12421846  .00000232  00000-0  12965-2 0  9997
2 22089  22.9672 135.5544 7234995 197.1569 111.4626  2.23720880255246
Source of the keplerian elements: AFSPC